Weather History for Ogden, UT

Change the Weather History Date:

Wednesday, October 23, 2013

  Actual Average Record
Temperature  
Mean Temperature 54 °F -  
Max Temperature 66 °F 63 °F 81 °F (1940)
Min Temperature 41 °F 36 °F 23 °F (1945)
Degree Days  
Heating Degree Days 12    
Growing Degree Days 4 (Base 50)    
Moisture  
Dew Point 31 °F    
Average Humidity 46    
Maximum Humidity 58    
Minimum Humidity 27    
Precipitation  
Precipitation 0.00 in - - ()
Sea Level Pressure  
Sea Level Pressure 30.09 in    
Wind  
Wind Speed 5 mph (South)    
Max Wind Speed 8 mph    
Max Gust Speed -    
Visibility 10 miles    
Events      
Averages and records for this station are not official NWS values.
T = Trace of Precipitation, MM = Missing Value Source: NWS Daily Summary

Daily Weather History Graph

Daily Weather History Graph

Search for Another Location

Airport:

Trip Planner

Search our weather history database for the weather conditions in past years. The results will help you decide how hot, cold, wet, or windy it might be!

Date:

Astronomy

Oct. 23, 2013 Rise Set
Actual Time 7:49 AM MDT 6:34 PM MDT
Civil Twilight 7:20 AM MDT 7:03 PM MDT
Nautical Twilight 6:48 AM MDT 7:35 PM MDT
Astronomical Twilight 6:16 AM MDT 8:07 PM MDT
Moon 10:07 PM MDT (10/23) 12:10 PM MDT (10/23)
Length of Visible Light 11h 42m
Length of Day
10h 45m
Waning Gibbous, 79% of the Moon is Illuminated
Oct 23
Waning Gibbous
Oct 26
Last Quarter
Nov 3
New
Nov 9
First Quarter
Nov 17
Full

Hourly Weather History & Observations

Time (MDT) Temp. Windchill Dew Point Humidity Pressure Visibility Wind Dir Wind Speed Gust Speed Precip Events Conditions
12:53 AM 46.0 °F 41.9 °F 30.0 °F 54% 30.10 in 10.0 mi South 8.1 mph - N/A   Clear
1:53 AM 44.1 °F 40.8 °F 28.9 °F 55% 30.11 in 10.0 mi South 5.8 mph - N/A   Clear
2:53 AM 44.1 °F 39.5 °F 28.9 °F 55% 30.10 in 10.0 mi South 8.1 mph - N/A   Clear
3:53 AM 44.1 °F 39.5 °F 28.0 °F 53% 30.09 in 10.0 mi South 8.1 mph - N/A   Clear
4:53 AM 45.0 °F 43.5 °F 28.0 °F 52% 30.09 in 10.0 mi Variable 3.5 mph - N/A   Clear
5:53 AM 45.0 °F - 28.0 °F 52% 30.10 in 10.0 mi Calm Calm - N/A   Clear
6:53 AM 44.1 °F - 28.0 °F 53% 30.12 in 10.0 mi Calm Calm - N/A   Clear
7:53 AM 41.0 °F 36.4 °F 27.0 °F 57% 30.14 in 10.0 mi SSW 6.9 mph - N/A   Clear
8:53 AM 45.0 °F 41.2 °F 27.0 °F 49% 30.14 in 10.0 mi South 6.9 mph - N/A   Clear
9:53 AM 51.1 °F - 28.9 °F 43% 30.15 in 10.0 mi Calm Calm - N/A   Clear
10:53 AM 55.0 °F - 28.9 °F 37% 30.14 in 10.0 mi NNE 4.6 mph - N/A   Clear
11:53 AM 57.9 °F - 30.9 °F 36% 30.14 in 10.0 mi Calm Calm - N/A   Clear
12:53 PM 61.0 °F - 30.9 °F 32% 30.11 in 10.0 mi NNE 3.5 mph - N/A   Clear
1:53 PM 63.0 °F - 32.0 °F 31% 30.08 in 10.0 mi North 3.5 mph - N/A   Clear
2:53 PM 64.0 °F - 32.0 °F 30% 30.06 in 10.0 mi Variable 3.5 mph - N/A   Clear
3:53 PM 66.0 °F - 30.9 °F 27% 30.05 in 10.0 mi NNE 4.6 mph - N/A   Clear
4:53 PM 64.9 °F - 30.0 °F 27% 30.04 in 10.0 mi NNW 3.5 mph - N/A   Clear
5:53 PM 62.1 °F - 32.0 °F 32% 30.03 in 10.0 mi WNW 5.8 mph - 0.00 in   Clear
6:53 PM 55.0 °F - 36.0 °F 49% 30.05 in 10.0 mi West 5.8 mph - 0.00 in   Clear
7:53 PM 52.0 °F - 35.1 °F 53% 30.08 in 10.0 mi South 3.5 mph - N/A   Clear
8:53 PM 50.0 °F - 35.1 °F 57% 30.08 in 10.0 mi SSE 4.6 mph - N/A   Clear
9:53 PM 48.0 °F - 34.0 °F 58% 30.07 in 10.0 mi South 6.9 mph - N/A   Clear
10:53 PM 46.0 °F 43.9 °F 32.0 °F 58% 30.07 in 10.0 mi SSE 4.6 mph - N/A   Clear
11:53 PM 46.0 °F 44.8 °F 30.9 °F 56% 30.06 in 10.0 mi SSE 3.5 mph - N/A   Clear